ASTRA 1L (31306 NORAD) Tracking and Keplerian Element Data

This shows tracking and keplerian element data for the satellite.

Feedback or suggestion? Click here.




ElementValue
Catalog31306
NameASTRA 1L
Epoch Orbit3998
Epoch Day34.33024763
Epoch Year2025
RAAN35.5207
Inclination0.0532
Eccentricity0.0005111
Argument of Perigee272.5736
Mean Anonmoly323.7124
Mean Motion1.00269006
Decay Rate1.24E-06
L11 31306U 07016A 25034.33024763 .00000124 00000+0 00000+0 0 9994
L22 31306 0.0532 35.5207 0005111 272.5736 323.7124 1.00269006 39982



Live tracking and technical data element details for ASTRA 1L (NORAD 31306). ASTRA 1L can be tracked NOW for your location showing map with azimuth and elevation plus other details from your city location.







IsCatalogInMostPopularTable: catalog: 31306, numindb: 354
Update: records affected: 1



GetName: 31306 ASTRA 1L

Hit Count: updated at: Thu, 15 May 2025 18:46:46 GMT